Regional Weather Roundup
Issued by NWS

Home | Current Version | Previous Version | Graphics & Text | Print | Product List | Glossary On
Versions: 1 2 3 4 5 6 7 8 9 10 11 12 13 14 15 16 17 18 19 20 21 22 23 24 25 26 27 28 29 30 31 32 33 34 35 36 37 38 39 40 41 42 43 44 45 46 47 48 49 50
561
ASUS44 KJAN 220803
RWRMS

MISSISSIPPI HOURLY WEATHER ROUNDUP
NATIONAL WEATHER SERVICE JACKSON MS
300 AM CDT WED OCT 22 2014

NOTE: "FAIR: INDICATES FEW OR NO CLOUDS BELOW 12,000 FEET WITH NO
SIGNIFICANT WEATHER AND/OR OBSTRUCTIONS TO VISIBILITY.

MSZ001>002-007>008-010>013-018>021-025>028-034>036-220900-
NORTHWEST MISSISSIPPI

CITY           SKY/WX    TMP DP  RH WIND       PRES   REMARKS
CLARKSDALE     FAIR      50  48  93 CALM      30.12S
CLEVELAND        N/A     52  51  95 N3        30.10R FOG
GREENWOOD      CLEAR     49  47  93 CALM      30.10R
GREENVILLE     CLEAR     52  50  93 N3        30.09S
GRENADA          N/A    N/A N/A N/A MISG        N/A
OLIVE BRANCH   CLEAR     52  50  93 CALM      30.15R
OXFORD         FAIR      48  46  93 NE6       30.13S
TUNICA         SUNNY     50  46  87 NE7       30.13S
$$

MSZ003>006-009-014>017-022>024-029>033-037>039-220900-
NORTHEAST MISSISSIPPI

CITY           SKY/WX    TMP DP  RH WIND       PRES   REMARKS
COLUMBUS AFB   CLEAR     47  46  97 N1        30.09R
CORINTH        FAIR      48  45  87 N3        30.12S
GOLDN TRIANGLE CLEAR     48  43  81 N8        30.08S
STARKVILLE     FAIR      50  46  87 N3        30.09S
TUPELO         CLEAR     50  46  86 NE3       30.11R
$$

MSZ040-058-220900-
CENTRAL MISSISSIPPI

CITY           SKY/WX    TMP DP  RH WIND       PRES   REMARKS
JACKSON INTL   CLEAR     54  52  93 N5        30.07S
JACKSON HAWKNS CLEAR     59  53  80 NE3       30.07S
MERIDIAN KEY   CLEAR     48  47  96 CALM      30.07S
MERIDIAN NAS   CLEAR     51  49  92 CALM      30.07S FOG
RAYMOND        FAIR      50  46  87 MISG      30.07F HAZE
VICKSBURG      CLEAR     57  55  93 N3        30.08R
$$

MSZ059>079-220900-
SOUTH MISSISSIPPI

CITY           SKY/WX    TMP DP  RH WIND       PRES   REMARKS
BROOKHAVEN     FAIR      55  55 100 CALM      30.08S FOG
HATTIESBURG    CLEAR     54  53  97 CALM      30.06R FOG
MCCOMB         CLEAR     62  56  80 N6        30.05S
NATCHEZ        CLEAR     55  52  88 CALM      30.08R
PINE BELT      CLEAR     55  50  82 CALM      30.07R
$$

MSZ080>082-220900-
COASTAL MISSISSIPPI

CITY           SKY/WX    TMP DP  RH WIND       PRES   REMARKS
BILOXI         CLEAR     60  55  83 NE6       30.02R
PASCAGOULA     CLEAR     52  51  97 CALM      30.02S
GULFPORT       CLEAR     57  55  93 CALM      30.02R
$$



USA.gov is the U.S. government's official web portal to all federal, state and local government web resources and services.